IRIDIUM 106 1 41917U 17003A 25349.25544272 .00000043 00000+0 83695-5 0 9999 2 41917 86.3985 165.4035 0002347 98.9590 261.1872 14.34217892466849 IRIDIUM 103 1 41918U 17003B 25349.24275327 .00000157 00000+0 49015-4 0 9994 2 41918 86.3987 165.3094 0001632 98.2119 261.9262 14.34214272466864 IRIDIUM 109 1 41919U 17003C 25349.24910773 .00000120 00000+0 35788-4 0 9998 2 41919 86.3988 165.3631 0001878 92.8284 267.3127 14.34220418466834 IRIDIUM 102 1 41920U 17003D 25349.21738431 .00000057 00000+0 13417-4 0 9990 2 41920 86.3986 165.3040 0001998 87.9561 272.1864 14.34217617466912 IRIDIUM 105 1 41921U 17003E 25349.32765900 .00000373 00000+0 12596-3 0 9991 2 41921 86.3978 133.7503 0001901 95.1628 264.9785 14.34219417468784 IRIDIUM 104 1 41922U 17003F 25349.23006980 .00000083 00000+0 22683-4 0 9995 2 41922 86.3986 165.3384 0001655 87.1145 273.0240 14.34218287466906 IRIDIUM 114 1 41923U 17003G 25349.23640383 .00000052 00000+0 11484-4 0 9990 2 41923 86.3986 165.3196 0001793 90.8563 269.2838 14.34216808466880 IRIDIUM 108 1 41924U 17003H 25349.33447425 .00000273 00000+0 90423-4 0 9999 2 41924 86.3971 133.6373 0002112 89.5134 270.6304 14.34216236468752 IRIDIUM 112 1 41925U 17003J 25349.01442174 .00000008 00000+0 -42357-5 0 9992 2 41925 86.3988 165.2631 0001750 86.7581 273.3815 14.34217354466871 IRIDIUM 111 1 41926U 17003K 25349.21104407 .00000059 00000+0 14151-4 0 9994 2 41926 86.3984 165.2472 0001947 93.8443 266.2976 14.34217902466884 IRIDIUM 113 1 42803U 17039A 25349.19100935 .00000002 00000+0 -63188-5 0 9991 2 42803 86.3964 39.0706 0001902 94.3014 265.8399 14.34217468444816 IRIDIUM 123 1 42804U 17039B 25349.23248827 .00000188 00000+0 60239-4 0 9997 2 42804 86.3966 70.5375 0002082 105.0442 255.0984 14.34216330443587 IRIDIUM 120 1 42805U 17039C 25349.18466822 .00000325 00000+0 10890-3 0 9999 2 42805 86.3963 38.8799 0002495 96.7064 263.4416 14.34217169444806 IRIDIUM 115 1 42806U 17039D 25349.39185161 .00000430 00000+0 12194-3 0 9993 2 42806 86.4499 38.8967 0002502 105.5679 254.5798 14.43275902447759 IRIDIUM 118 1 42807U 17039E 25349.19442801 .00000004 00000+0 -55018-5 0 9991 2 42807 86.3962 70.5523 0001845 96.4264 263.7142 14.34215247443579 IRIDIUM 117 1 42808U 17039F 25349.28322920 .00000260 00000+0 85882-4 0 9995 2 42808 86.3966 70.4745 0002029 102.1018 258.0405 14.34217041443614 IRIDIUM 126 1 42809U 17039G 25349.30859914 .00000393 00000+0 13324-3 0 9995 2 42809 86.3967 70.5121 0001899 99.7203 260.4207 14.34217562443598 IRIDIUM 124 1 42810U 17039H 25349.11767668 .00000378 00000+0 10631-3 0 9991 2 42810 86.4492 7.3132 0002316 97.3014 262.8451 14.43278725448560 IRIDIUM 128 1 42811U 17039J 25349.36910686 -.00000026 00000+0 -16314-4 0 9996 2 42811 86.3966 102.0208 0002372 98.8288 261.3177 14.34216941443638 IRIDIUM 121 1 42812U 17039K 25349.18809080 -.00000070 00000+0 -32028-4 0 9991 2 42812 86.3963 70.5887 0002126 95.0532 265.0906 14.34217166443457 IRIDIUM 133 1 42955U 17061A 25349.33106086 .00000324 00000+0 10855-3 0 9990 2 42955 86.3968 102.1499 0002106 97.7426 262.4009 14.34218501428429 IRIDIUM 100 1 42956U 17061B 25349.32470493 -.00000007 00000+0 -94378-5 0 9990 2 42956 86.3965 102.0755 0001956 99.3872 260.7545 14.34215934428429 IRIDIUM 122 1 42957U 17061C 25349.36276047 .00000067 00000+0 16978-4 0 9997 2 42957 86.3960 102.0596 0001950 98.5380 261.6037 14.34218514428431 IRIDIUM 129 1 42958U 17061D 25349.31836465 .00000137 00000+0 41980-4 0 9998 2 42958 86.3967 102.1429 0001773 88.0163 272.1236 14.34217271428449 IRIDIUM 119 1 42959U 17061E 25349.35642060 .00000198 00000+0 63518-4 0 9997 2 42959 86.3968 102.1220 0001784 95.7576 264.3823 14.34215962428467 IRIDIUM 107 1 42960U 17061F 25349.30568005 .00000165 00000+0 51850-4 0 9990 2 42960 86.3973 102.1633 0002031 107.7327 252.4090 14.34216848428465 IRIDIUM 132 1 42961U 17061G 25349.31201940 .00000389 00000+0 13197-3 0 9993 2 42961 86.3967 102.1415 0002037 99.9093 260.2333 14.34215762428466 IRIDIUM 136 1 42962U 17061H 25349.34373510 .00000064 00000+0 15905-4 0 9990 2 42962 86.3968 102.1340 0001891 97.9626 262.1784 14.34216667428480 IRIDIUM 139 1 42963U 17061J 25349.35007810 .00000250 00000+0 82035-4 0 9994 2 42963 86.3970 102.1903 0002080 99.8854 260.2577 14.34216540428494 IRIDIUM 125 1 42964U 17061K 25349.33736899 .00000116 00000+0 34295-4 0 9995 2 42964 86.3975 102.2536 0001635 109.3848 250.7525 14.34211883428502 IRIDIUM 135 1 43070U 17083A 25349.38128092 .00000345 00000+0 11629-3 0 9992 2 43070 86.3967 38.8399 0002141 92.7360 267.4081 14.34214548417804 IRIDIUM 138 1 43071U 17083B 25349.19735136 -.00000017 00000+0 -13252-4 0 9998 2 43071 86.3971 38.5837 0001687 93.9566 266.1823 14.34217374417764 IRIDIUM 116 1 43072U 17083C 25349.37494446 -.00000066 00000+0 -30573-4 0 9994 2 43072 86.3957 38.8304 0002416 96.7093 263.4378 14.34216596417825 IRIDIUM 130 1 43073U 17083D 25349.20369850 .00000283 00000+0 94005-4 0 9996 2 43073 86.3975 39.1599 0002460 100.9348 259.2125 14.34218903417744 IRIDIUM 151 1 43074U 17083E 25349.38763027 -.00000021 00000+0 -14388-4 0 9998 2 43074 86.3961 38.8790 0002152 95.1126 265.0315 14.34217292417797 IRIDIUM 134 1 43075U 17083F 25349.14660876 .00000248 00000+0 81573-4 0 9990 2 43075 86.3970 38.9854 0002232 99.4313 260.7135 14.34213689417725 IRIDIUM 137 1 43076U 17083G 25349.15929763 .00000071 00000+0 18115-4 0 9991 2 43076 86.3972 39.0691 0002664 89.1623 270.9878 14.34217546417798 IRIDIUM 141 1 43077U 17083H 25349.15295382 .00000002 00000+0 -61937-5 0 9991 2 43077 86.3961 38.9128 0001907 97.0797 263.0616 14.34216905417790 IRIDIUM 153 1 43078U 17083J 25349.31443745 -.00000098 00000+0 -42215-4 0 9991 2 43078 86.3966 7.3358 0001719 96.7486 263.3906 14.34217545418925 IRIDIUM 131 1 43079U 17083K 25349.21003718 .00000002 00000+0 -64200-5 0 9996 2 43079 86.3966 39.0625 0002028 93.7654 266.3774 14.34217557417730 IRIDIUM 144 1 43249U 18030A 25349.32078063 .00000017 00000+0 -11589-5 0 9993 2 43249 86.3961 7.2664 0002260 95.5042 264.6412 14.34217693403784 IRIDIUM 149 1 43250U 18030B 25349.32712366 .00000176 00000+0 55815-4 0 9990 2 43250 86.3969 7.2331 0002219 93.0074 267.1376 14.34217517403802 IRIDIUM 157 1 43251U 18030C 25349.13684567 .00000265 00000+0 87617-4 0 9995 2 43251 86.3971 7.3616 0002197 88.3112 271.8336 14.34215720403754 IRIDIUM 140 1 43252U 18030D 25349.29541016 .00000159 00000+0 49572-4 0 9994 2 43252 86.3968 7.3083 0002272 95.1075 265.0380 14.34217509403837 IRIDIUM 145 1 43253U 18030E 25349.35248953 .00000277 00000+0 91764-4 0 9997 2 43253 86.3968 7.2570 0002534 95.1688 264.9797 14.34214998403771 IRIDIUM 146 1 43254U 18030F 25349.33345991 .00000237 00000+0 77596-4 0 9999 2 43254 86.3968 7.2779 0002380 93.8669 266.2799 14.34220500403780 IRIDIUM 148 1 43255U 18030G 25349.30175264 .00000093 00000+0 26095-4 0 9999 2 43255 86.3971 7.3315 0002271 89.1976 270.9480 14.34216850403816 IRIDIUM 142 1 43256U 18030H 25349.33980961 .00000149 00000+0 45970-4 0 9996 2 43256 86.3966 7.2113 0002583 95.2938 264.8553 14.34217502403782 IRIDIUM 150 1 43257U 18030J 25349.30808908 .00000284 00000+0 94404-4 0 9990 2 43257 86.3971 7.3348 0002395 94.9021 265.2449 14.34220672403804 IRIDIUM 143 1 43258U 18030K 25349.28906568 .00000269 00000+0 89119-4 0 9999 2 43258 86.3973 7.4280 0002468 94.9233 265.2245 14.34215249403739 IRIDIUM 161 1 43478U 18047C 25349.23427800 .00000148 00000+0 38125-4 0 9990 2 43478 86.4507 165.3386 0001871 85.9623 274.1792 14.43279967398600 IRIDIUM 152 1 43479U 18047D 25348.98270979 -.00000038 00000+0 -20663-4 0 9993 2 43479 86.3987 165.3043 0001713 90.3815 269.7577 14.34217488396081 IRIDIUM 147 1 43480U 18047E 25349.19835752 .00000031 00000+0 41625-5 0 9998 2 43480 86.3983 165.2161 0002009 86.7940 273.3485 14.34217407396110 IRIDIUM 110 1 43481U 18047F 25348.99539107 .00000099 00000+0 28369-4 0 9994 2 43481 86.3986 165.3877 0001595 79.2579 280.8797 14.34218121396071 IRIDIUM 162 1 43482U 18047G 25349.22797524 .00000167 00000+0 43622-4 0 9996 2 43482 86.4505 165.2346 0001811 97.8296 262.3110 14.43278229398591 IRIDIUM 160 1 43569U 18061A 25349.35984348 .00000271 00000+0 89680-4 0 9994 2 43569 86.3978 133.6580 0001912 85.9252 274.2162 14.34215765387022 IRIDIUM 166 1 43570U 18061B 25349.31544573 .00000138 00000+0 42341-4 0 9999 2 43570 86.3974 133.6288 0002147 91.9468 268.1974 14.34216456387045 IRIDIUM 158 1 43571U 18061C 25349.35349741 .00000274 00000+0 90792-4 0 9998 2 43571 86.3976 133.6231 0001842 97.7826 262.3579 14.34214658387015 IRIDIUM 165 1 43572U 18061D 25349.30910243 .00000186 00000+0 59450-4 0 9993 2 43572 86.3977 133.6839 0002078 90.4263 269.7171 14.34216836387039 IRIDIUM 155 1 43573U 18061E 25349.34081603 .00000054 00000+0 12057-4 0 9993 2 43573 86.3974 133.5491 0002070 99.1282 261.0149 14.34217506387001 IRIDIUM 154 1 43574U 18061F 25349.32178714 .00000172 00000+0 54318-4 0 9999 2 43574 86.3974 133.6814 0002024 92.3677 267.7751 14.34219768387053 IRIDIUM 163 1 43575U 18061G 25349.37252728 .00000122 00000+0 36486-4 0 9994 2 43575 86.3975 133.5816 0001828 94.0745 266.0660 14.34215940387039 IRIDIUM 156 1 43576U 18061H 25349.34715586 .00000223 00000+0 72468-4 0 9990 2 43576 86.3973 133.5998 0002134 97.3759 262.7679 14.34214901387029 IRIDIUM 164 1 43577U 18061J 25348.90951296 .00000215 00000+0 69654-4 0 9996 2 43577 86.3975 133.8193 0002177 90.6947 269.4498 14.34213950387008 IRIDIUM 159 1 43578U 18061K 25349.36618595 .00000305 00000+0 10167-3 0 9994 2 43578 86.3978 133.5689 0001973 89.6355 270.5067 14.34216035387038 IRIDIUM 180 1 43922U 19002A 25349.29591410 .00000050 00000+0 10751-4 0 9998 2 43922 86.3966 70.4728 0001962 94.1062 266.0358 14.34217355362633 IRIDIUM 176 1 43923U 19002B 25349.17042354 .00001093 00000+0 16952-3 0 9990 2 43923 86.6087 70.4955 0002304 95.3884 264.7596 14.72248804372173 IRIDIUM 168 1 43924U 19002C 25349.15002400 .00000305 00000+0 10171-3 0 9999 2 43924 86.3968 70.6059 0002055 97.7914 262.3516 14.34221913362590 IRIDIUM 173 1 43925U 19002D 25349.27688307 .00000285 00000+0 94793-4 0 9999 2 43925 86.3965 70.4493 0002002 101.6134 258.5287 14.34218429362599 IRIDIUM 169 1 43926U 19002E 25349.34679239 .00000408 00000+0 12688-3 0 9991 2 43926 86.4223 102.0714 0002105 126.2964 233.8429 14.38607028363792 IRIDIUM 172 1 43927U 19002F 25349.27053699 .00000252 00000+0 82897-4 0 9997 2 43927 86.3963 70.4591 0001963 93.9683 266.1737 14.34220459362608 IRIDIUM 175 1 43928U 19002G 25349.09772169 .00000849 00000+0 13063-3 0 9998 2 43928 86.1502 12.7981 0003220 89.8324 270.3261 14.72239255372158 IRIDIUM 171 1 43929U 19002H 25349.32128485 .00000240 00000+0 78755-4 0 9996 2 43929 86.3976 70.7242 0002371 99.5647 260.5817 14.34216285362605 IRIDIUM 170 1 43930U 19002J 25349.31253242 .00000079 00000+0 86148-5 0 9993 2 43930 86.6086 70.4396 0002221 90.9741 269.1731 14.72243899372203 IRIDIUM 167 1 43931U 19002K 25349.31494318 .00000194 00000+0 62258-4 0 9998 2 43931 86.3966 70.4615 0002474 105.0851 255.0619 14.34216866362606 IRIDIUM 181 1 56726U 23068S 25349.10625611 .00000444 00000+0 12600-3 0 9993 2 56726 86.4513 133.7373 0002399 84.8117 275.3357 14.43308248135888 IRIDIUM 177 1 56727U 23068T 25349.17580898 .00001433 00000+0 18513-3 0 9996 2 56727 86.1968 56.1732 0002294 85.6438 274.5045 14.80212728139142 IRIDIUM 174 1 56728U 23068U 25349.30015879 .00001258 00000+0 19565-3 0 9997 2 56728 86.6095 70.5740 0002195 88.0886 272.0583 14.72255425138963 IRIDIUM 178 1 56729U 23068V 25349.36769624 .00001374 00000+0 17740-3 0 9990 2 56729 86.6535 102.2009 0002524 97.5755 262.5753 14.80243493139178 IRIDIUM 179 1 56730U 23068W 25349.36234258 .00001318 00000+0 16999-3 0 9995 2 56730 86.6776 110.6340 0002450 89.9443 270.2059 14.80231573139176